Regional Weather Roundup
Issued by NWS

Home | Current Version | Previous Version | Text Only | Print | Product List | Glossary Off
Versions: 1 2 3 4 5 6 7 8 9 10 11 12 13 14 15 16 17 18 19 20 21 22 23 24 25 26 27 28 29 30 31 32 33 34 35 36 37 38 39 40 41 42 43 44 45 46 47 48 49 50

000
ASUS43 KOAX 192102
RWRNE

WEATHER ROUNDUP FOR NEBRASKA
NATIONAL WEATHER SERVICE OMAHA NE
300 PM CST MON FEB 19 2018

NOTES: SATELLITE DATA IS BEING USED TO AUGMENT CLOUD COVER ABOVE
       12000 FEET.
       "FAIR" INDICATES FEW OR NO CLOUDS BELOW 12,000 FEET WITH NO
       SIGNIFICANT WEATHER AND/OR OBSTRUCTIONS TO VISIBILITY.


NEZ001>004-019>022-054>056-192200-
NEBRASKA PANHANDLE

CITY           SKY/WX    TMP DP  RH WIND       PRES   REMARKS
SCOTTSBLUFF    LGT SNOW   7  -1  70 NE13      29.78R WCI  -9
ALLIANCE       LGT SNOW   5   0  79 NE15      29.78S WCI -13
CHADRON        LGT SNOW   3  -3  76 NE14      29.90R WCI -15
GORDON         LGT SNOW   4  -3  74 N15       29.82F WCI -14
KIMBALL        LGT SNOW   7   3  82 NE13      29.65F WCI  -9
SIDNEY         LGT SNOW   9   4  80 NE13      29.70F WCI  -7
$$

NEZ057>060-069>072-079>082-192200-
SOUTHWEST NEBRASKA

CITY           SKY/WX    TMP DP  RH WIND       PRES   REMARKS
NORTH PLATTE   LGT SNOW  13   7  77 N9G21     29.80F WCI   1
IMPERIAL       FLURRIES  14   9  80 N13       29.75F WCI   0
LEXINGTON      LGT SNOW  16  11  80 N10       29.82F WCI   4
MCCOOK         LGT SNOW  17  11  77 N13       29.79F WCI   4
OGALLALA       LGT SNOW  13   9  83 NE13      29.78S WCI  -1
$$

NEZ005>010-023>029-035>040-094-192200-
NORTH CENTRAL NEBRASKA

CITY           SKY/WX    TMP DP  RH WIND       PRES   REMARKS
VALENTINE      LGT SNOW   8   1  73 N15G24    29.89F WCI  -9
AINSWORTH      CLOUDY     8   4  86 N21G30    29.85F FOG     WCI -12
BROKEN BOW     LGT SNOW  12   7  80 N15G26    29.81S WCI  -4
O`NEILL        LGT SNOW  12   9  88 N20G25    29.86F WCI  -6
ORD            LGT SNOW  13   9  84 N14G25    29.84S FOG     WCI  -2
THEDFORD       CLOUDY     9   6  85 N14G21    29.82F WCI  -7
$$

NEZ041-046>049-061>064-073>077-083>087-192200-
SOUTH CENTRAL NEBRASKA

CITY           SKY/WX    TMP DP  RH WIND       PRES   REMARKS
GRAND ISLAND   LGT SNOW  17  12  80 N17       29.83F WCI   1
AURORA         FLURRIES  18  14  84 N15G21    29.83R WCI   3
HASTINGS       FLURRIES  17  13  84 N14       29.83S WCI   3
HEBRON         CLOUDY    23  19  83 N14       29.83S WCI  10
HOLDREGE       LGT SNOW  17  14  88 N13       29.82R WCI   4
KEARNEY        FLURRIES  16  12  84 N14       29.84S WCI   2
YORK           CLOUDY    18  18 100 N13       29.83R WCI   4
$$

NEZ011>018-030>034-042>045-192200-
NORTHEAST NEBRASKA

CITY           SKY/WX    TMP DP  RH WIND       PRES   REMARKS
NORFOLK        LGT SNOW  17  13  84 N18       29.83S FOG     WCI   1
ALBION         LGT SNOW  15  11  82 N14       29.85R WCI   1
BLAIR          CLOUDY    23  21  93 N9        29.81R FOG     WCI  13
COLUMBUS       FLURRIES  19  16  88 NW16      29.85R WCI   4
FREMONT        CLOUDY    22  19  91 N9        29.84R WCI  11
TEKAMAH        CLOUDY    21  19  92 N15       29.83S WCI   8
WAYNE          CLOUDY    18  17  96 N9        29.84R WCI   7
$$

NEZ050>053-065>068-078-088>093-192200-
SOUTHEAST NEBRASKA

CITY           SKY/WX    TMP DP  RH WIND       PRES   REMARKS
LINCOLN        FLURRIES  23  19  85 N13       29.84S WCI  11
OMAHA EPPLEY   CLOUDY    24  21  88 N14       29.82R WCI  12
BEATRICE       CLOUDY    25  23  91 NW14      29.82R WCI  13
FALLS CITY     CLOUDY    27  25  92 NW9       29.80R WCI  18
NEBRASKA CITY  CLOUDY    26  26 100 N10       29.80S WCI  15
PLATTSMOUTH    CLOUDY    24  24  97 NW10      29.80S WCI  14
$$

NEZ044-045-051>053-067-192200-
OMAHA AREA

CITY           SKY/WX    TMP DP  RH WIND       PRES   REMARKS
OMAHA EPPLEY   CLOUDY    24  21  88 N14       29.82R WCI  12
BLAIR          CLOUDY    23  21  93 N9        29.81R FOG     WCI  13
FREMONT        CLOUDY    22  19  91 N9        29.84R WCI  11
MILLARD        CLOUDY    25  22  88 NW7       29.82S WCI  17
OFFUTT AFB     CLOUDY    24  22  91 NW10      29.80S WCI  14
PLATTSMOUTH    CLOUDY    24  24  97 NW10      29.80S WCI  14
WAHOO          CLOUDY    22  20  91 N16       29.83R WCI   9
$$



USA.gov is the U.S. government's official web portal to all federal, state and local government web resources and services.